User: anonymous   Login
Location: D.A.R.C. Observatory
(36.7133°N, 120.8553°W)
Time: 14:51:34
(UTC-08:00)
Language:

USA 215 - Orbit

View from above orbital plane
View from above orbital plane
View from above satellite
View from above satellite

Ground track
Ground track

The orbit data is extracted from the following two-line orbital elements,

1 37162U 10046A   18049.83958410 0.00000000  00000-0  00000-0 0    03
2 37162 123.0003 220.9275 0005000 178.1710 181.8289 13.41418863    03
Epoch (UTC): 18 February 2018 20:09:00
Eccentricity: 0.0005000
inclination: 123.0003°
perigee height: 1100 km
apogee height: 1108 km
right ascension of ascending node: 220.9275°
argument of perigee: 178.1710°
revolutions per day: 13.41418863
mean anomaly at epoch: 181.8289°
orbit number at epoch: 0

The dashed part of the orbit path shows where the satellite is in the earth's shadow,  

DLR